Location: Alvediston
(51.0078°N, 2.0364°W)
Time: 20:06:12
(UTC+00:00)

STARLINK-40 - Pass Details

Date: 27 February 2020
Orbit: 528 x 531 km, 53.0° (Epoch: 30 March)

Event Time Altitude Azimuth Distance (km) Brightness Sun altitude
Rises 19:18:48 0° 277° (W) 2,668 9.0 -15.5°
Reaches altitude 10° 19:21:01 10° 280° (W) 1,778 7.6 -15.9°
Maximum altitude 19:25:02 65° 3° (N) 587 3.7 -16.5°
Enters shadow 19:26:38 34° 74° (ENE) 893 4.2 -16.8°
